Time,TemperatureF,DewpointF,PressureIn,WindDirection,WindDirectionDegrees,WindSpeedMPH,WindSpeedGustMPH,Humidity,HourlyPrecipIn,Conditions,Clouds,dailyrainin,SolarRadiationWatts/m^2,SoftwareType,DateUTC
2013-08-08 00:01:00,61.0,37.0,-100.00,NE,51,8.0,10.0,39,-99.99,,,-99.99,0.070000,,2013-08-08 06:01:00,
2013-08-08 00:11:00,61.0,37.0,-100.00,NE,51,9.0,10.0,39,-99.99,,,-99.99,0.100000,,2013-08-08 06:11:00,
2013-08-08 00:32:00,60.0,38.0,-100.00,NE,51,8.0,10.0,43,-99.99,,,-99.99,0.120000,,2013-08-08 06:32:00,
2013-08-08 00:42:00,60.0,38.0,-100.00,NE,38,8.0,9.0,44,-99.99,,,-99.99,0.130000,,2013-08-08 06:42:00,
2013-08-08 01:01:00,58.0,39.0,-100.00,ENE,69,7.0,8.0,47,-99.99,,,-99.99,0.130000,,2013-08-08 07:01:00,
2013-08-08 01:12:00,58.0,39.0,-100.00,ENE,70,7.0,8.0,48,-99.99,,,-99.99,0.090000,,2013-08-08 07:12:00,
2013-08-08 01:22:00,58.0,39.0,-100.00,ENE,70,7.0,8.0,48,-99.99,,,-99.99,0.090000,,2013-08-08 07:22:00,
2013-08-08 01:43:00,58.0,39.0,-100.00,ENE,66,6.0,7.0,48,-99.99,,,-99.99,0.070000,,2013-08-08 07:43:00,
2013-08-08 01:53:00,59.0,38.0,-100.00,NE,42,7.0,9.0,46,-99.99,,,-99.99,0.030000,,2013-08-08 07:53:00,
2013-08-08 02:01:00,60.0,38.0,-100.00,NE,47,7.0,8.0,43,-99.99,,,-99.99,0.030000,,2013-08-08 08:01:00,
2013-08-08 02:11:00,58.0,38.0,-100.00,ENE,68,6.0,7.0,46,-99.99,,,-99.99,0.050000,,2013-08-08 08:11:00,
2013-08-08 02:21:00,58.0,38.0,-100.00,ENE,60,7.0,7.0,48,-99.99,,,-99.99,0.040000,,2013-08-08 08:21:00,
2013-08-08 02:32:00,58.0,38.0,-100.00,ENE,68,8.0,8.0,46,-99.99,,,-99.99,0.050000,,2013-08-08 08:32:00,
2013-08-08 02:43:00,58.0,38.0,-100.00,ENE,70,8.0,8.0,47,-99.99,,,-99.99,0.060000,,2013-08-08 08:43:00,
2013-08-08 02:52:00,57.0,38.0,-100.00,ENE,65,9.0,9.0,49,-99.99,,,-99.99,0.030000,,2013-08-08 08:52:00,
2013-08-08 03:01:00,59.0,37.0,-100.00,NE,51,10.0,11.0,44,-99.99,,,-99.99,0.010000,,2013-08-08 09:01:00,
2013-08-08 03:11:00,59.0,38.0,-100.00,ENE,58,9.0,11.0,46,-99.99,,,-99.99,0.020000,,2013-08-08 09:11:00,
2013-08-08 03:42:00,57.0,39.0,-100.00,ENE,65,10.0,12.0,51,-99.99,,,-99.99,0.040000,,2013-08-08 09:42:00,
2013-08-08 03:53:00,57.0,38.0,-100.00,NE,52,11.0,12.0,49,-99.99,,,-99.99,0.090000,,2013-08-08 09:53:00,
2013-08-08 04:01:00,56.0,38.0,-100.00,ENE,61,9.0,11.0,51,-99.99,,,-99.99,0.030000,,2013-08-08 10:01:00,
2013-08-08 04:11:00,56.0,38.0,-100.00,ENE,69,9.0,11.0,50,-99.99,,,-99.99,0.030000,,2013-08-08 10:11:00,
2013-08-08 04:22:00,55.0,38.0,-100.00,ENE,70,5.0,9.0,53,-99.99,,,-99.99,0.070000,,2013-08-08 10:22:00,
2013-08-08 04:32:00,56.0,38.0,-100.00,ENE,66,9.0,9.0,51,-99.99,,,-99.99,0.080000,,2013-08-08 10:32:00,
2013-08-08 04:43:00,55.0,38.0,-100.00,ENE,69,7.0,9.0,52,-99.99,,,-99.99,0.040000,,2013-08-08 10:43:00,
2013-08-08 04:52:00,55.0,38.0,-100.00,ENE,65,8.0,8.0,52,-99.99,,,-99.99,0.010000,,2013-08-08 10:52:00,
2013-08-08 05:01:00,55.0,38.0,-100.00,ENE,62,5.0,7.0,52,-99.99,,,-99.99,0.020000,,2013-08-08 11:01:00,
2013-08-08 05:11:00,54.0,37.0,-100.00,ENE,76,5.0,6.0,52,-99.99,,,-99.99,0.020000,,2013-08-08 11:11:00,
2013-08-08 05:21:00,55.0,37.0,-100.00,ENE,63,4.0,6.0,51,-99.99,,,-99.99,0.000000,,2013-08-08 11:21:00,
2013-08-08 05:32:00,55.0,37.0,-100.00,ENE,60,6.0,7.0,51,-99.99,,,-99.99,0.000000,,2013-08-08 11:32:00,
2013-08-08 05:43:00,55.0,37.0,-100.00,ENE,59,7.0,7.0,50,-99.99,,,-99.99,0.000000,,2013-08-08 11:43:00,
2013-08-08 05:52:00,55.0,37.0,-100.00,ENE,69,7.0,7.0,51,-99.99,,,-99.99,0.000000,,2013-08-08 11:52:00,
2013-08-08 06:01:00,55.0,37.0,-100.00,ENE,69,7.0,8.0,51,-99.99,,,-99.99,0.000000,,2013-08-08 12:01:00,
2013-08-08 06:11:00,56.0,37.0,-100.00,NE,49,7.0,9.0,48,-99.99,,,-99.99,0.000000,,2013-08-08 12:11:00,
2013-08-08 06:21:00,57.0,37.0,-100.00,NE,48,7.0,10.0,47,-99.99,,,-99.99,0.000000,,2013-08-08 12:21:00,
2013-08-08 06:32:00,55.0,37.0,-100.00,ENE,63,6.0,7.0,51,-99.99,,,-99.99,0.030000,,2013-08-08 12:32:00,
2013-08-08 06:43:00,55.0,37.0,-100.00,ENE,65,6.0,7.0,51,-99.99,,,-99.99,0.120000,,2013-08-08 12:43:00,
2013-08-08 06:52:00,54.0,37.0,-100.00,ENE,63,6.0,7.0,52,-99.99,,,-99.99,0.350000,,2013-08-08 12:52:00,
2013-08-08 07:22:00,54.0,37.0,-100.00,ENE,62,6.0,9.0,53,-99.99,,,-99.99,3.260000,,2013-08-08 13:22:00,
2013-08-08 07:32:00,54.0,38.0,-100.00,ENE,65,9.0,9.0,53,-99.99,,,-99.99,17.160000,,2013-08-08 13:32:00,
2013-08-08 07:43:00,54.0,38.0,-100.00,ENE,70,8.0,10.0,54,-99.99,,,-99.99,25.350000,,2013-08-08 13:43:00,
2013-08-08 07:52:00,56.0,38.0,-100.00,NE,53,10.0,11.0,49,-99.99,,,-99.99,60.230000,,2013-08-08 13:52:00,
2013-08-08 08:02:00,57.0,38.0,-100.00,NE,56,9.0,11.0,48,-99.99,,,-99.99,97.900002,,2013-08-08 14:02:00,
2013-08-08 08:11:00,57.0,38.0,-100.00,NE,56,9.0,11.0,48,-99.99,,,-99.99,97.900002,,2013-08-08 14:11:00,
2013-08-08 08:32:00,59.0,38.0,-100.00,ENE,64,12.0,13.0,45,-99.99,,,-99.99,295.700012,,2013-08-08 14:32:00,
2013-08-08 08:43:00,61.0,38.0,-100.00,ENE,60,11.0,14.0,41,-99.99,,,-99.99,376.500000,,2013-08-08 14:43:00,
2013-08-08 08:53:00,61.0,38.0,-100.00,ENE,57,13.0,15.0,41,-99.99,,,-99.99,427.100006,,2013-08-08 14:53:00,
2013-08-08 09:02:00,62.0,37.0,-100.00,ENE,63,12.0,16.0,39,-99.99,,,-99.99,385.899994,,2013-08-08 15:02:00,
2013-08-08 09:11:00,60.0,37.0,-100.00,ENE,68,12.0,14.0,42,-99.99,,,-99.99,205.399994,,2013-08-08 15:11:00,
2013-08-08 09:32:00,61.0,37.0,-100.00,ENE,60,9.0,15.0,41,-99.99,,,-99.99,234.899994,,2013-08-08 15:32:00,
2013-08-08 09:43:00,61.0,38.0,-100.00,ENE,63,14.0,16.0,42,-99.99,,,-99.99,206.600006,,2013-08-08 15:43:00,
2013-08-08 09:52:00,62.0,38.0,-100.00,ENE,70,10.0,14.0,41,-99.99,,,-99.99,392.600006,,2013-08-08 15:52:00,
2013-08-08 10:01:00,63.0,38.0,-100.00,East,80,8.0,12.0,39,-99.99,,,-99.99,491.100006,,2013-08-08 16:01:00,
2013-08-08 10:21:00,64.0,38.0,-100.00,ENE,69,8.0,12.0,38,-99.99,,,-99.99,573.099976,,2013-08-08 16:21:00,
2013-08-08 10:32:00,66.0,37.0,-100.00,ENE,66,8.0,11.0,34,-99.99,,,-99.99,722.900024,,2013-08-08 16:32:00,
2013-08-08 10:42:00,66.0,37.0,-100.00,ENE,69,6.0,11.0,33,-99.99,,,-99.99,629.500000,,2013-08-08 16:42:00,
2013-08-08 10:52:00,68.0,37.0,-100.00,ENE,62,9.0,11.0,31,-99.99,,,-99.99,648.900024,,2013-08-08 16:52:00,
2013-08-08 11:11:00,67.0,37.0,-100.00,ENE,65,6.0,11.0,33,-99.99,,,-99.99,287.399994,,2013-08-08 17:11:00,
2013-08-08 11:21:00,67.0,37.0,-100.00,ENE,65,6.0,11.0,33,-99.99,,,-99.99,287.399994,,2013-08-08 17:21:00,
2013-08-08 11:32:00,69.0,36.0,-100.00,ENE,62,8.0,10.0,29,-99.99,,,-99.99,757.500000,,2013-08-08 17:32:00,
2013-08-08 11:43:00,72.0,35.0,-100.00,ENE,63,8.0,11.0,26,-99.99,,,-99.99,832.000000,,2013-08-08 17:43:00,
2013-08-08 11:52:00,72.0,34.0,-100.00,NE,49,8.0,13.0,24,-99.99,,,-99.99,870.000000,,2013-08-08 17:52:00,
2013-08-08 12:01:00,73.0,34.0,-100.00,East,85,3.0,11.0,24,-99.99,,,-99.99,826.000000,,2013-08-08 18:01:00,
2013-08-08 12:43:00,75.0,30.0,-100.00,South,183,3.0,5.0,18,-99.99,,,-99.99,892.000000,,2013-08-08 18:43:00,
2013-08-08 13:32:00,71.0,34.0,-100.00,WSW,258,11.0,16.0,26,-99.99,,,-99.99,191.899994,,2013-08-08 19:32:00,
2013-08-08 13:43:00,73.0,37.0,-100.00,WSW,248,7.0,13.0,27,-99.99,,,-99.99,524.900024,,2013-08-08 19:43:00,
2013-08-08 13:56:00,74.0,36.0,-100.00,WSW,239,9.0,13.0,25,-99.99,,,-99.99,974.000000,,2013-08-08 19:56:00,
2013-08-08 14:02:00,74.0,36.0,-100.00,WSW,239,9.0,13.0,25,-99.99,,,-99.99,974.000000,,2013-08-08 20:02:00,
2013-08-08 14:11:00,70.0,35.0,-100.00,WSW,255,8.0,11.0,27,-99.99,,,-99.99,196.000000,,2013-08-08 20:11:00,
2013-08-08 14:22:00,70.0,36.0,-100.00,WSW,252,9.0,13.0,28,-99.99,,,-99.99,123.900002,,2013-08-08 20:22:00,
2013-08-08 14:32:00,69.0,36.0,-100.00,SW,232,7.0,11.0,30,-99.99,,,-99.99,92.599998,,2013-08-08 20:32:00,
2013-08-08 14:42:00,68.0,36.0,-100.00,SW,226,8.0,10.0,31,-99.99,,,-99.99,50.840000,,2013-08-08 20:42:00,
2013-08-08 14:52:00,66.0,41.0,-100.00,ESE,108,5.0,12.0,40,-99.99,,,-99.99,26.980000,,2013-08-08 20:52:00,
2013-08-08 15:22:00,54.0,48.0,-100.00,East,79,6.0,11.0,78,-99.99,,,-99.99,19.870001,,2013-08-08 21:22:00,
2013-08-08 15:32:00,55.0,48.0,-100.00,ENE,77,3.0,10.0,77,-99.99,,,-99.99,15.280000,,2013-08-08 21:32:00,
2013-08-08 15:42:00,56.0,49.0,-100.00,ESE,122,1.0,12.0,75,-99.99,,,-99.99,10.990000,,2013-08-08 21:42:00,
2013-08-08 15:52:00,56.0,49.0,-100.00,SSW,193,3.0,6.0,78,-99.99,,,-99.99,8.770000,,2013-08-08 21:52:00,
2013-08-08 16:22:00,56.0,48.0,-100.00,ENE,70,8.0,9.0,74,-99.99,,,-99.99,18.730000,,2013-08-08 22:22:00,
2013-08-08 16:32:00,58.0,47.0,-100.00,NE,53,15.0,17.0,67,-99.99,,,-99.99,31.959999,,2013-08-08 22:32:00,
2013-08-08 16:45:00,55.0,49.0,-100.00,ENE,71,10.0,14.0,79,-99.99,,,-99.99,55.580002,,2013-08-08 22:45:00,
2013-08-08 16:54:00,57.0,48.0,-100.00,ENE,57,12.0,18.0,70,-99.99,,,-99.99,88.699997,,2013-08-08 22:54:00,
2013-08-08 17:23:00,58.0,47.0,-100.00,NE,50,8.0,11.0,66,-99.99,,,-99.99,186.699997,,2013-08-08 23:23:00,
2013-08-08 17:44:00,61.0,45.0,-100.00,NE,51,8.0,12.0,55,-99.99,,,-99.99,285.600006,,2013-08-08 23:44:00,
2013-08-08 17:53:00,62.0,44.0,-100.00,NE,50,12.0,15.0,51,-99.99,,,-99.99,235.199997,,2013-08-08 23:53:00,
2013-08-08 18:01:00,63.0,43.0,-100.00,NE,51,9.0,11.0,47,-99.99,,,-99.99,229.199997,,2013-08-09 00:01:00,
2013-08-08 18:12:00,63.0,45.0,-100.00,NE,54,12.0,15.0,52,-99.99,,,-99.99,233.399994,,2013-08-09 00:12:00,
2013-08-08 18:44:00,63.0,48.0,-100.00,ENE,62,6.0,11.0,57,-99.99,,,-99.99,387.399994,,2013-08-09 00:44:00,
2013-08-08 18:53:00,67.0,45.0,-100.00,NE,54,7.0,10.0,45,-99.99,,,-99.99,500.899994,,2013-08-09 00:53:00,
2013-08-08 19:23:00,67.0,40.0,-100.00,ENE,62,10.0,13.0,38,-99.99,,,-99.99,309.700012,,2013-08-09 01:23:00,
2013-08-08 19:33:00,67.0,43.0,-100.00,ENE,65,10.0,14.0,42,-99.99,,,-99.99,261.100006,,2013-08-09 01:33:00,
2013-08-08 19:44:00,66.0,42.0,-100.00,ENE,66,10.0,13.0,41,-99.99,,,-99.99,224.000000,,2013-08-09 01:44:00,
2013-08-08 19:54:00,67.0,43.0,-100.00,ENE,59,5.0,12.0,41,-99.99,,,-99.99,192.600006,,2013-08-09 01:54:00,
2013-08-08 20:12:00,65.0,43.0,-100.00,NE,51,11.0,13.0,44,-99.99,,,-99.99,159.199997,,2013-08-09 02:12:00,
2013-08-08 20:23:00,65.0,43.0,-100.00,NE,51,11.0,13.0,44,-99.99,,,-99.99,159.199997,,2013-08-09 02:23:00,
2013-08-08 20:44:00,64.0,44.0,-100.00,ENE,60,7.0,14.0,48,-99.99,,,-99.99,23.990000,,2013-08-09 02:44:00,
2013-08-08 21:04:00,63.0,40.0,-100.00,NE,50,12.0,13.0,42,-99.99,,,-99.99,10.520000,,2013-08-09 03:04:00,
2013-08-08 21:12:00,63.0,40.0,-100.00,NE,54,10.0,13.0,42,-99.99,,,-99.99,5.460000,,2013-08-09 03:12:00,
2013-08-08 21:33:00,63.0,41.0,-100.00,NE,51,12.0,13.0,44,-99.99,,,-99.99,0.120000,,2013-08-09 03:33:00,
2013-08-08 21:44:00,61.0,42.0,-100.00,ENE,68,7.0,12.0,48,-99.99,,,-99.99,0.010000,,2013-08-09 03:44:00,
2013-08-08 21:52:00,60.0,44.0,-100.00,ENE,65,7.0,9.0,54,-99.99,,,-99.99,0.010000,,2013-08-09 03:52:00,
2013-08-08 22:01:00,60.0,43.0,-100.00,ENE,64,8.0,9.0,52,-99.99,,,-99.99,0.020000,,2013-08-09 04:01:00,
2013-08-08 22:12:00,62.0,40.0,-100.00,NE,51,9.0,12.0,45,-99.99,,,-99.99,0.020000,,2013-08-09 04:12:00,
2013-08-08 22:22:00,62.0,40.0,-100.00,NE,51,11.0,12.0,44,-99.99,,,-99.99,0.060000,,2013-08-09 04:22:00,
2013-08-08 22:33:00,60.0,42.0,-100.00,ENE,65,10.0,11.0,50,-99.99,,,-99.99,0.070000,,2013-08-09 04:33:00,
2013-08-08 22:43:00,59.0,43.0,-100.00,ENE,69,8.0,11.0,54,-99.99,,,-99.99,0.030000,,2013-08-09 04:43:00,
2013-08-08 22:53:00,59.0,43.0,-100.00,ENE,65,8.0,9.0,54,-99.99,,,-99.99,0.040000,,2013-08-09 04:53:00,
2013-08-08 23:01:00,59.0,43.0,-100.00,ENE,70,6.0,9.0,55,-99.99,,,-99.99,0.130000,,2013-08-09 05:01:00,
2013-08-08 23:11:00,60.0,42.0,-100.00,NE,51,10.0,10.0,50,-99.99,,,-99.99,0.130000,,2013-08-09 05:11:00,
2013-08-08 23:21:00,60.0,42.0,-100.00,NE,51,10.0,10.0,50,-99.99,,,-99.99,0.130000,,2013-08-09 05:21:00,
2013-08-08 23:32:00,61.0,42.0,-100.00,NE,52,9.0,11.0,49,-99.99,,,-99.99,0.060000,,2013-08-09 05:32:00,
2013-08-08 23:42:00,61.0,43.0,-100.00,NE,54,9.0,11.0,52,-99.99,,,-99.99,0.080000,,2013-08-09 05:42:00,
2013-08-08 23:52:00,61.0,42.0,-100.00,NE,52,11.0,13.0,50,-99.99,,,-99.99,0.090000,,2013-08-09 05:52:00,